Vertical_Velocity
-2 -2 -6 10 16 -1 -4 -1 -1 -2 3 0 0 -1 8 -4 1 1 1 1 0 -0 -3 1 1 1 1 1 -2 -3 -1 0 -3 -2 -3 -2 0 2 4 4 3 2 2 4
-2 -1 3 -1 2 1 0 -1 -7 12 -2 -1 3 -8 1 -6 1 2 1 1 -0 2 -2 0 1 -0 -0 -2 -3 -0 -3 -2 -1 2 3 1 -1 0 -2 -3 -1 -2 -1 2
-2 10 3 3 -2 -1 -1 0 -2 2 4 -6 -1 -16 0 -1 -4 2 0 -0 -0 -0 -1 -3 -1 -2 1 -0 -4 -3 -1 1 -3 -5 -5 -3 -2 -2 -4 -2 -3 -2 -1 -1
-2 -8 -1 -1 -1 3 -1 -1 -2 -1 -2 2 3 -9 -4 -3 -1 0 -1 -2 0 -1 1 0 -2 -2 -2 -4 -3 -2 -2 -3 -1 -2 -3 -4 -6 -7 -4 -5 -3 -3 -0 -1
1 -1 -3 -1 0 -5 -4 -2 -2 -1 -1 2 -7 11 2 3 -2 0 -0 0 1 -0 0 1 0 0 -1 -2 2 -1 -3 -0 -2 -1 -2 -2 -4 -5 -3 -4 -5 -2 1 -0
3 -1 -0 -4 -5 1 -3 -2 -2 -1 0 4 -5 -1 5 -4 -2 -3 -1 -1 -1 0 -1 -1 -2 -1 -0 -1 -3 -3 -3 -1 -1 -3 -3 -4 -4 -2 -4 -2 -6 -3 -4 -3
0 -3 -5 2 2 -1 0 -1 1 2 4 -0 1 4 6 4 -1 -0 -4 -1 -1 -1 -2 -2 -1 0 -3 -5 -3 -2 -3 -3 -3 -4 -3 -3 -4 -3 -4 -3 -4 -3 -2 -1
4 8 -1 0 -1 -3 2 0 5 1 2 3 -5 -5 -3 2 -0 2 1 -4 -1 -2 -2 -1 1 -1 -2 -1 -2 -3 -3 -2 -1 -2 -2 -2 -3 -4 -4 -4 -3 -2 -3 -1
1 7 1 1 -0 1 -0 -0 1 -1 -8 10 -4 0 7 6 4 4 -1 -1 0 -0 -1 -2 -2 -3 -4 -4 -3 -2 -2 -2 -2 -2 -3 -1 -1 -2 -1 1 -1 -4 0 -4
-3 1 -0 -1 0 0 -1 0 -1 1 1 -1 1 8 3 -2 -1 -0 -1 1 -1 -3 -3 -1 -2 -1 -2 -3 -2 -1 -2 -4 -4 -2 -0 -0 -2 -0 -2 -5 -3 -3 -2 -3
-0 -0 -3 -2 -0 2 -1 -1 -1 -2 -1 1 0 2 5 6 -0 -4 -3 -5 -8 -10 -9 -7 -5 -3 -3 -0 -1 -2 -4 -3 -2 -2 -1 -4 -3 -3 -3 -3 -3 -4 -4 -3
1 0 -2 3 0 1 0 -2 4 6 -1 1 6 -24 -5 2 1 7 8 5 6 1 3 1 -1 -1 2 -3 -4 -1 -0 -1 -0 -2 -3 -4 -4 -1 -2 -2 -1 -2 -6 -2
0 -0 -2 -1 2 1 -0 -0 1 1 2 -12 4 -14 4 7 2 -6 -8 -10 -10 -4 1 -1 -2 1 -3 -1 0 -0 -1 -2 -3 -4 -3 -0 -0 -1 -2 -3 -2 -3 -5 -1
-1 -0 -0 -0 10 -1 -1 0 3 4 2 -5 -7 -3 11 14 28 3 4 7 6 3 -0 -1 1 6 5 0 1 -1 -1 -0 -2 1 0 -1 -1 -4 -3 -4 -2 -2 2 -2
-1 -3 -3 -4 -2 2 -1 -3 0 2 1 10 -3 -7 1 -3 -14 -8 -0 0 -5 -5 -4 -1 -1 -2 -1 -0 -0 -1 -0 -1 -2 -2 -3 -1 -3 -0 -3 -2 0 -2 -1 -1
-0 -1 -3 -10 -2 0 -5 -1 8 4 -1 -4 -2 -10 -2 -7 -2 4 2 -1 2 0 -0 -1 -1 -2 -2 -3 -3 -3 -2 -1 -1 -2 -3 -5 -4 -3 -1 1 -1 -2 -2 0
-2 -1 -1 -5 0 -3 -8 0 2 0 5 2 -3 3 5 5 2 -4 -1 2 -2 -3 -3 -2 -0 -1 -0 0 -1 -1 -1 0 -1 -2 -1 -3 -2 -1 3 -0 -2 -2 -1 -3
0 2 1 -5 -1 0 9 -4 4 2 2 -0 -2 1 -1 -1 -2 -6 2 -5 -4 -6 -3 -4 -3 -2 0 -1 -1 -2 0 1 -1 -0 -3 2 -1 -2 -1 -2 -1 0 -1 -3
2 1 -1 -1 1 -15 -14 -1 -1 -2 -4 -1 3 2 3 -3 -3 -0 -3 1 1 1 0 -1 1 2 2 0 -2 -2 1 -1 -1 -1 1 -1 -2 -4 -2 -0 -0 -1 -5 -1
2 2 -2 4 1 -2 7 -2 1 -2 1 -5 -6 -5 -8 -6 -13 -0 1 1 -4 -1 -1 -2 -1 -0 -1 0 -2 -1 0 -1 -3 -2 -2 -2 -2 -3 -1 -2 -1 -3 -2 -4
-1 -2 -2 2 -0 -6 2 2 4 1 -9 -4 -1 0 -3 3 4 4 6 6 4 6 1 2 1 0 -1 -2 -1 0 -2 -3 -4 -0 0 -1 -1 -2 -1 -2 -1 -3 -2 -1
2 -1 -3 2 2 -5 -1 -1 2 1 -1 -6 -8 -11 -8 1 -0 0 3 3 -0 -2 -3 -0 -3 -1 -0 -2 -3 -1 -1 -2 -2 -3 -2 -2 -1 1 -1 -3 -1 -2 -1 2
-3 -4 -4 2 -1 2 14 13 10 -1 4 3 -2 -1 -4 0 1 1 -2 -3 -1 -3 1 2 -1 -1 1 -0 -2 -3 -1 -3 -3 -1 -2 -1 0 2 0 -4 -1 -2 3 1
3 5 -2 8 -9 2 -1 -5 -3 -1 -4 -4 6 2 3 -1 0 4 3 2 1 1 -0 -0 1 -0 -0 -1 1 -2 -3 -1 -3 -2 -2 1 -1 -3 2 1 1 1 0 1
-7 1 8 -2 -3 13 0 -3 -3 -3 -0 -8 -0 -3 -4 -2 0 1 0 1 -0 -1 0 0 -2 -1 1 0 3 -1 0 -3 -6 -1 -1 0 0 -2 -1 5 -1 -1 3 4
-1 2 -2 1 -3 -2 4 -2 -3 -7 -8 0 -6 -6 2 -2 -3 2 3 0 0 0 -0 0 -0 -2 -1 0 -1 -1 -2 -3 -3 -1 -0 -1 -3 1 3 -2 3 6 6 5
Height
3163 3165 3165 3167 3168 3168 3167 3167 3166 3166 3162 3161 3160 3158 3158 3152 3152 3153 3151 3151 3149 3148 3147 3149 3149 3149 3150 3149 3148 3147 3146 3144 3142 3141 3139 3137 3134 3133 3131 3128 3125 3122 3120 3117
3163 3163 3164 3165 3165 3165 3164 3164 3163 3164 3159 3158 3156 3151 3151 3147 3146 3147 3146 3146 3146 3146 3144 3146 3146 3146 3146 3145 3144 3143 3142 3140 3137 3135 3133 3129 3126 3124 3122 3119 3117 3113 3110 3107
3161 3162 3162 3162 3161 3161 3161 3161 3160 3160 3157 3153 3151 3145 3142 3143 3141 3141 3141 3142 3143 3143 3143 3142 3142 3143 3143 3142 3140 3139 3137 3134 3129 3126 3123 3121 3119 3117 3114 3112 3108 3105 3102 3098
3158 3157 3157 3158 3158 3159 3158 3157 3157 3156 3156 3155 3153 3146 3141 3137 3138 3138 3138 3139 3140 3140 3140 3140 3139 3139 3139 3138 3136 3133 3130 3126 3124 3121 3117 3114 3110 3107 3105 3100 3097 3095 3091 3088
3157 3154 3154 3155 3155 3154 3155 3154 3154 3154 3152 3152 3147 3150 3138 3135 3135 3136 3136 3136 3137 3137 3138 3138 3138 3137 3136 3134 3132 3128 3125 3123 3119 3115 3112 3107 3102 3098 3093 3089 3086 3082 3079 3075
3152 3150 3152 3151 3151 3152 3152 3152 3151 3150 3150 3148 3138 3143 3137 3134 3133 3133 3134 3135 3136 3136 3136 3136 3134 3133 3132 3128 3125 3123 3119 3116 3113 3108 3103 3098 3093 3088 3083 3079 3074 3070 3066 3062
3149 3148 3147 3148 3149 3149 3149 3150 3149 3150 3149 3144 3140 3142 3136 3133 3133 3132 3131 3132 3133 3133 3133 3132 3131 3129 3126 3123 3120 3116 3113 3109 3105 3101 3096 3090 3084 3079 3073 3068 3061 3056 3051 3047
3148 3147 3145 3146 3147 3147 3148 3149 3149 3147 3143 3141 3139 3136 3132 3132 3131 3131 3130 3130 3130 3131 3130 3128 3126 3123 3121 3117 3114 3110 3106 3101 3097 3091 3086 3080 3075 3069 3063 3056 3051 3046 3040 3035
3145 3144 3144 3144 3144 3146 3146 3147 3148 3146 3143 3139 3135 3132 3130 3129 3129 3128 3128 3127 3127 3126 3125 3123 3121 3118 3115 3112 3108 3103 3098 3093 3088 3082 3076 3070 3064 3058 3052 3046 3040 3034 3028 3022
3143 3144 3142 3142 3142 3144 3144 3145 3146 3145 3143 3138 3129 3130 3128 3129 3129 3128 3125 3123 3122 3122 3120 3118 3116 3113 3109 3105 3101 3096 3090 3084 3079 3073 3066 3060 3054 3048 3041 3034 3027 3021 3015 3009
3141 3142 3142 3141 3140 3141 3141 3142 3144 3144 3142 3138 3136 3131 3129 3127 3126 3123 3122 3119 3117 3114 3113 3112 3111 3108 3103 3099 3093 3087 3081 3075 3069 3063 3057 3050 3043 3035 3028 3020 3013 3006 3000 2995
3139 3139 3139 3139 3138 3139 3140 3140 3141 3141 3139 3137 3135 3128 3127 3127 3126 3123 3121 3119 3116 3113 3110 3106 3102 3099 3096 3090 3084 3078 3072 3066 3059 3052 3045 3037 3029 3022 3014 3007 3000 2993 2986 2981
3138 3138 3138 3136 3138 3136 3135 3136 3137 3137 3135 3132 3134 3129 3125 3126 3121 3118 3114 3111 3110 3110 3107 3102 3098 3093 3087 3082 3075 3069 3062 3056 3049 3041 3033 3026 3018 3010 3002 2994 2987 2979 2973 2967
3136 3136 3137 3137 3136 3135 3134 3134 3134 3133 3132 3125 3126 3123 3126 3123 3118 3113 3111 3108 3104 3100 3098 3095 3089 3084 3078 3071 3065 3059 3053 3046 3038 3030 3022 3015 3007 2997 2989 2981 2974 2966 2959 2951
3134 3133 3133 3132 3131 3130 3129 3127 3128 3126 3124 3123 3118 3120 3117 3115 3111 3109 3105 3102 3096 3094 3090 3085 3080 3075 3070 3064 3058 3051 3044 3036 3028 3019 3011 3003 2994 2985 2976 2968 2961 2953 2945 2938
3131 3130 3128 3127 3126 3124 3122 3121 3119 3118 3117 3116 3114 3112 3112 3108 3106 3103 3100 3096 3093 3088 3083 3078 3073 3067 3061 3055 3048 3041 3033 3025 3017 3008 2999 2990 2981 2972 2964 2956 2948 2941 2933 2927
3127 3126 3125 3123 3123 3121 3118 3114 3114 3114 3114 3113 3110 3110 3107 3103 3100 3096 3094 3091 3085 3082 3076 3071 3065 3059 3052 3046 3039 3031 3023 3015 3006 2997 2989 2979 2970 2961 2953 2945 2937 2930 2922 2916
3123 3123 3123 3120 3119 3120 3115 3112 3111 3109 3109 3108 3106 3103 3100 3097 3094 3090 3088 3082 3078 3074 3069 3064 3058 3051 3045 3037 3030 3022 3014 3005 2997 2988 2978 2969 2960 2951 2942 2934 2927 2920 2913 2906
3120 3120 3121 3120 3118 3113 3108 3108 3107 3105 3105 3102 3100 3098 3095 3092 3089 3088 3081 3075 3072 3067 3061 3055 3048 3041 3035 3028 3020 3013 3005 2996 2987 2979 2970 2960 2950 2940 2932 2925 2918 2911 2903 2896
3117 3118 3119 3118 3117 3112 3107 3106 3104 3103 3101 3098 3095 3093 3089 3085 3080 3078 3076 3068 3060 3057 3052 3046 3039 3033 3027 3020 3012 3004 2996 2987 2978 2970 2960 2950 2941 2933 2924 2917 2909 2902 2894 2887
3114 3114 3114 3113 3112 3106 3104 3102 3102 3102 3101 3094 3090 3086 3083 3080 3075 3069 3067 3061 3055 3049 3043 3037 3031 3025 3019 3012 3004 2996 2988 2979 2970 2962 2952 2943 2936 2927 2919 2910 2903 2894 2887 2879
3111 3111 3109 3109 3109 3104 3102 3102 3103 3098 3092 3086 3081 3080 3076 3071 3065 3061 3055 3050 3045 3040 3035 3030 3023 3018 3012 3004 2997 2989 2980 2971 2963 2954 2945 2937 2930 2921 2912 2903 2896 2888 2880 2871
3108 3108 3107 3107 3102 3100 3099 3096 3092 3087 3082 3079 3076 3072 3065 3059 3054 3050 3046 3041 3037 3032 3027 3021 3016 3011 3005 2997 2990 2982 2974 2964 2956 2947 2939 2932 2925 2916 2907 2898 2891 2883 2876 2867
3103 3102 3098 3097 3095 3094 3091 3088 3084 3080 3077 3074 3069 3062 3057 3051 3045 3041 3037 3032 3028 3024 3020 3015 3010 3003 2997 2991 2984 2976 2967 2958 2950 2941 2934 2927 2919 2911 2903 2896 2888 2881 2874 2866
3098 3096 3091 3087 3086 3084 3080 3079 3078 3074 3070 3065 3060 3055 3049 3043 3038 3034 3029 3026 3022 3018 3014 3009 3003 2997 2990 2985 2979 2970 2962 2953 2944 2937 2931 2923 2915 2906 2899 2894 2887 2882 2875 2866
3091 3087 3084 3080 3077 3073 3072 3071 3067 3062 3059 3055 3049 3045 3041 3035 3030 3026 3023 3020 3016 3013 3008 3003 2998 2992 2986 2980 2973 2965 2957 2948 2940 2934 2928 2920 2912 2905 2898 2893 2889 2884 2877 2870